This demonstration page uses our WeatherBlox Daily Observations layout. Learn more.

38.89511, -77.03637

Hourly Observations for February 5, 2015

Temp ( °F °C ) Dew Point ( °F °C ) Humidity (%) Winds ( mph kmh ) Pressure ( in mb ) Visibility ( mi km ) Precip ( " mm )
12:52 am 00:52 Mostly Cloudy 43 6 27 -3 53 53 S 3 6 29.91 1013 10 16.09344 0 0
1:52 am 01:52 Mostly Cloudy 41 5 27 -3 57 57 S 9 15 29.91 1013 10 16.09344 0 0
2:52 am 02:52 Mostly Cloudy 39 4 27 -3 61 61 NNW 3 6 29.88 1012 10 16.09344 0 0
3:52 am 03:52 Mostly Cloudy 39 4 27 -3 61 61 SSW 3 6 29.88 1012 10 16.09344 0 0
4:52 am 04:52 Cloudy 37 3 25 -4 60 60 W 3 6 29.88 1012 10 16.09344 0 0
5:52 am 05:52 Mostly Cloudy 45 7 27 -3 49 49 NW 16 26 29.91 1013 10 16.09344 0 0
6:16 am 06:16 Partly Cloudy 45 7 28 -2 53 53 NW 17 28 29.94 1014 10 16.09344 0 0
6:30 am 06:30 Partly Cloudy 41 5 27 -3 57 57 NNW 21 33 29.97 1015 10 16.09344 0 0
6:52 am 06:52 Mostly Cloudy 39 4 23 -5 52 52 NNW 20 31 30 1016 10 16.09344 0 0
7:52 am 07:52 Cloudy 37 3 18 -8 45 45 NNW 21 33 30.03 1017 10 16.09344 0 0
8:52 am 08:52 Cloudy 36 2 16 -9 44 44 NNW 20 31 30.09 1019 10 16.09344 0 0
9:52 am 09:52 Cloudy 34 1 12 -11 41 41 NW 23 37 30.15 1021 10 16.09344 0 0
10:52 am 10:52 Cloudy 34 1 7 -14 32 32 NW 21 33 30.18 1022 10 16.09344 0 0
11:52 am 11:52 Mostly Cloudy 34 1 7 -14 32 32 NNW 23 37 30.15 1021 10 16.09344 0 0
12:52 pm 12:52 Mostly Cloudy 34 1 5 -15 29 29 NNW 28 44 30.15 1021 10 16.09344 0 0
1:52 pm 13:52 Mostly Cloudy 34 1 3 -16 27 27 NNW 23 37 30.15 1021 10 16.09344 0 0
2:52 pm 14:52 Partly Cloudy 34 1 3 -16 27 27 NNW 22 35 30.15 1021 10 16.09344 0 0
3:52 pm 15:52 Partly Cloudy 32 0 1 -17 27 27 NW 22 35 30.18 1022 10 16.09344 0 0
4:52 pm 16:52 Mostly Sunny 30 -1 -2 -19 24 24 NW 25 41 30.21 1023 10 16.09344 0 0
5:52 pm 17:52 Clear 28 -2 -2 -19 26 26 NNW 23 37 30.24 1024 10 16.09344 0 0
6:52 pm 18:52 Clear 27 -3 -2 -19 28 28 NNW 18 30 30.3 1026 10 16.09344 0 0
7:52 pm 19:52 Clear 27 -3 -2 -19 28 28 NW 14 22 30.3 1026 10 16.09344 0 0
8:52 pm 20:52 Clear 25 -4 -2 -19 30 30 NW 16 26 30.33 1027 10 16.09344 0 0
9:52 pm 21:52 Clear 23 -5 0 -18 36 36 NNW 17 28 30.33 1027 10 16.09344 0 0
10:52 pm 22:52 Clear 21 -6 0 -18 38 38 NW 10 17 30.36 1028 10 16.09344 0 0
11:52 pm 23:52 Clear 21 -6 0 -18 38 38 NW 17 28 30.36 1028 10 16.09344 0 0

Powered by AerisWeather